TimeCDT,TemperatureF,Dew PointF,Humidity,Sea Level PressureIn,VisibilityMPH,Wind Direction,Wind SpeedMPH,Gust SpeedMPH,PrecipitationIn,Events,Conditions,WindDirDegrees,DateUTC
12:58 AM,74.3,69.4,85,30.04,10.0,SSE,5.8,-,N/A,,Clear,150,2013-07-09 05:58:00
1:58 AM,73.2,69.8,89,30.04,10.0,SSE,4.6,-,N/A,,Clear,160,2013-07-09 06:58:00
2:58 AM,74.7,69.8,85,30.03,10.0,SSE,4.6,-,N/A,,Clear,150,2013-07-09 07:58:00
3:58 AM,74.8,70.2,85,30.04,10.0,SSE,4.6,-,N/A,,Clear,160,2013-07-09 08:58:00
4:58 AM,74.5,70.3,87,30.04,10.0,South,4.6,-,N/A,,Clear,190,2013-07-09 09:58:00
5:58 AM,73.0,70.0,90,30.04,10.0,South,4.6,-,N/A,,Clear,170,2013-07-09 10:58:00
6:58 AM,75.4,70.3,84,30.06,10.0,Variable,4.6,-,N/A,,Clear,0,2013-07-09 11:58:00
7:58 AM,78.4,71.8,80,30.06,10.0,Variable,4.6,-,N/A,,Clear,0,2013-07-09 12:58:00
8:58 AM,81.7,73.2,75,30.07,10.0,WSW,4.6,-,N/A,,Clear,250,2013-07-09 13:58:00
9:58 AM,84.7,74.1,70,30.06,10.0,Variable,4.6,-,N/A,,Clear,0,2013-07-09 14:58:00
10:58 AM,87.4,74.8,66,30.06,10.0,Variable,5.8,-,N/A,,Partly Cloudy,0,2013-07-09 15:58:00
11:58 AM,89.2,73.6,60,30.05,10.0,SSW,8.1,-,N/A,,Partly Cloudy,210,2013-07-09 16:58:00
12:58 PM,91.6,73.2,55,30.03,10.0,SSW,8.1,-,N/A,,Mostly Cloudy,210,2013-07-09 17:58:00
1:26 PM,91.4,73.4,55,30.06,10.0,SSW,8.1,-,N/A,,Light Drizzle,210,2013-07-09 18:26:00
1:28 PM,91.4,73.4,55,30.06,10.0,SSW,8.1,-,N/A,,Light Drizzle,210,2013-07-09 18:28:00
1:35 PM,91.4,73.4,55,30.06,10.0,North,-9999.0,-,N/A,,Scattered Clouds,0,2013-07-09 18:35:00
1:58 PM,91.4,72.7,54,30.03,-9999.0,Variable,6.9,-,N/A,,Clear,0,2013-07-09 18:58:00
2:01 PM,91.4,73.4,55,30.03,10.0,Variable,6.9,-,N/A,,Partly Cloudy,0,2013-07-09 19:01:00
2:58 PM,90.3,72.7,56,30.01,10.0,Variable,2.3,-,N/A,,Mostly Cloudy,0,2013-07-09 19:58:00
3:58 PM,93.0,72.1,50,29.99,10.0,South,8.1,-,N/A,,Scattered Clouds,170,2013-07-09 20:58:00
4:58 PM,92.8,72.9,52,29.98,10.0,Variable,4.6,-,N/A,,Mostly Cloudy,0,2013-07-09 21:58:00
5:58 PM,90.9,75.4,60,29.96,10.0,Variable,3.5,-,N/A,,Mostly Cloudy,0,2013-07-09 22:58:00
6:58 PM,88.0,77.9,72,29.95,10.0,WSW,1.2,-,N/A,,Mostly Cloudy,250,2013-07-09 23:58:00
7:58 PM,88.5,75.9,66,29.95,10.0,South,2.3,-,N/A,,Mostly Cloudy,170,2013-07-10 00:58:00
8:58 PM,82.2,76.6,83,29.94,10.0,SSE,4.6,-,N/A,,Clear,160,2013-07-10 01:58:00
9:58 PM,80.4,74.5,82,29.95,10.0,South,3.5,-,N/A,,Clear,170,2013-07-10 02:58:00
10:58 PM,80.6,72.3,76,29.95,10.0,South,4.6,-,N/A,,Clear,190,2013-07-10 03:58:00
11:58 PM,79.5,71.8,77,29.96,10.0,SSW,4.6,-,N/A,,Mostly Cloudy,200,2013-07-10 04:58:00